Zurück zum Katalog

JILIN-1 GAOFEN 06A 03 XING

AktivWissenschaftSSO
NORAD 57014·PAYLOAD·🇨🇳 China
Dieser Satellitenname wurde noch nicht durch offizielle Quellen bestätigt.

Gestartet Jun 15, 2023 von Taiyuan Satellite Launch Center

Loading…

Nächste Überflüge (nächste 24 Stunden)

TLE

AktuellSource: Space-Track

Epoche: Sep 14, 2026, 14:00 UTC

1 57014U 23085L   26257.58351903  .00011316  00000-0  34918-3 0  9991
2 57014  97.5031   9.5735 0005664  89.6953 270.4938 15.33725898180311

Verfolge JILIN-1 GAOFEN 06A 03 XING in Echtzeit mit AllMySat

Download on the App Store